Miscellaneous Local Product
Issued by NWS Hastings, NE

Home | Current Version | Previous Version | Text Only | Print | Product List | Glossary Off
Versions: 1 2 3 4 5 6 7 8 9 10 11 12 13 14 15 16 17 18 19 20 21 22 23 24 25 26 27 28 29 30 31 32 33 34 35 36 37 38 39 40 41 42 43 44 45 46 47 48 49 50

092
AXUS43 KGID 060602
MISGRI

GID CWA HOURLY WEATHER ROUNDUP
NATIONAL WEATHER SERVICE HASTINGS NE
1200 AM CST SAT FEB 06 2016

NOTE: "FAIR" INDICATES FEW OR NO CLOUDS BELOW 12,000 FEET WITH NO
SIGNIFICANT WEATHER AND/OR OBSTRUCTIONS TO VISIBILITY.

...SOUTH CENTRAL NEBRASKA...

CITY           SKY/WX    TMP DP  RH WIND       PRES   REMARKS
GRAND ISLAND   PTCLDY    31  25  78 NW7       30.26F WCI  24
HASTINGS       CLEAR     27  21  78 NW8       30.25S WCI  19
ORD            CLEAR     22  19  89 SW5       30.24S WCI  16
YORK           CLEAR     28  27  93 NW8       30.26R WCI  20
AURORA         PTCLDY    24  24  97 NW9       30.26R WCI  15
LEXINGTON      CLEAR     20  17  88 W6        30.27S WCI  12
HOLDREGE       CLEAR     22  19  88 W5        30.27S WCI  16
HEBRON         CLEAR     27  26  96 NW5       30.27S WCI  21

...NEBRASKA PANHANDLE...

CITY           SKY/WX    TMP DP  RH WIND       PRES   REMARKS
CHADRON        CLOUDY    21  13  71 SW10      30.22S WCI  10
ALLIANCE       CLOUDY    13   7  77 W14       30.21F WCI  -2
SCOTTSBLUFF    CLOUDY    13   8  81 N6        30.24F WCI   4
SIDNEY         CLOUDY    18  10  71 W15       30.25F WCI   4

...WESTERN AND NORTH CENTRAL NEBRASKA...

CITY           SKY/WX    TMP DP  RH WIND       PRES   REMARKS
VALENTINE      CLEAR     23  20  88 W9        30.20S WCI  13
AINSWORTH      CLEAR     24  20  87 SW9       30.21S WCI  14
ONEILL         CLEAR     26  25  95 SW5       30.22S WCI  20
BROKEN BOW     CLEAR     15  13  91 NW3       30.25R
IMPERIAL       CLEAR     20  12  71 NW9       30.28S WCI   9
NORTH PLATTE   FOG       14  12  92 W5        30.27R VSB 1   WCI   6
MCCOOK         CLEAR     20  15  81 W10       30.29S WCI   9

...EASTERN NEBRASKA...

CITY           SKY/WX    TMP DP  RH WIND       PRES   REMARKS
NORFOLK        CLEAR     25  23  92 W5        30.23S WCI  19
SO SIOUX CITY  CLOUDY    31  27  85 NW12      30.24S WCI  22
TEKAMAH        CLOUDY    30  27  88 NW7       30.25R WCI  23
COLUMBUS       CLEAR     27  18  69 NW5       30.25F WCI  21
ALBION         CLEAR     26  24  91 CALM      30.24S
OMAHA EPPLEY   MOCLDY    28  28 100 CALM      30.26R FOG
OFFUTT AFB     CLOUDY    28  28  99 W1        30.25S FOG
LINCOLN        CLOUDY    34  31  88 NW5       30.28R WCI  30
NEBRASKA CITY  CLOUDY    32  30  94 W7        30.25S WCI  25
BEATRICE       CLOUDY    29  27  92 W5        30.26F WCI  24
FALLS CITY     CLEAR     29  23  78 CALM      30.26S

...NORTHERN KANSAS...

CITY           SKY/WX    TMP DP  RH WIND       PRES   REMARKS
GOODLAND       CLEAR     19  10  68 W15       30.29R WCI   5
HILL CITY      CLEAR     25  19  78 NW9       30.31R WCI  15
NORTON         CLEAR     21  16  79 W12       30.29S WCI   9
PHILLIPSBURG   CLEAR     25  23  93 CALM      30.31R
BELOIT         CLOUDY    30  27  86 W5        30.29R WCI  25
HAYS           CLEAR     28  16  59 NW9       30.30R WCI  20
RUSSELL        PTCLDY    27  23  85 NW10      30.28S WCI  17
CONCORDIA      PTCLDY    28  24  85 W7        30.28R WCI  21
SALINA         PTCLDY    31  25  78 NW6       30.29R WCI  25
TOPEKA         CLOUDY    32  25  75 CALM      30.26F



USA.gov is the U.S. government's official web portal to all federal, state and local government web resources and services.